GW0116 Weather Reports


Display with metric or nautical units.
time (UTC)temp
F
wind
direction
speed
MPH
gust
MPH
rain 1hr
in
rain 24hr
in
rain mn
in
humidity
%
barometer
mb
20260503225217 62 252 5.0 7.0 0.00 0.00 0.00 42 1014.2
20260503224715 62 191 7.0 8.0 0.00 0.00 0.00 42 1014.2
20260503224213 61 242 7.0 8.0 0.00 0.00 0.00 43 1014.4
20260503223710 61 207 8.0 9.0 0.00 0.00 0.00 42 1014.3
20260503223207 62 269 6.0 7.0 0.00 0.00 0.00 43 1014.6
20260503222704 62 191 5.0 6.0 0.00 0.00 0.00 44 1014.5
20260503222202 62 259 3.0 3.0 0.00 0.00 0.00 42 1014.6
20260503221700 62 254 4.0 5.0 0.00 0.00 0.00 42 1014.6
20260503221156 63 239 2.0 3.0 0.00 0.00 0.00 43 1014.5
20260503220653 63 235 4.0 6.0 0.00 0.00 0.00 42 1014.6
20260503220150 63 200 12.0 13.0 0.00 0.00 0.00 39 1014.8
20260503215647 63 218 7.0 10.0 0.00 0.00 0.00 41 1014.9
20260503215144 64 212 3.0 3.0 0.00 0.00 0.00 41 1014.8
20260503214643 63 238 5.0 6.0 0.00 0.00 0.00 41 1014.8
20260503214138 64 223 5.0 7.0 0.00 0.00 0.00 39 1015.1
20260503213632 63 222 3.0 3.0 0.00 0.00 0.00 42 1015.2
20260503213128 63 218 9.0 11.0 0.00 0.00 0.00 38 1015.1
20260503212626 64 213 5.0 7.0 0.00 0.00 0.00 38 1015.3
20260503212123 64 209 10.0 11.0 0.00 0.00 0.00 38 1014.8
20260503211620 63 237 2.0 3.0 0.00 0.00 0.00 40 1014.7
20260503211116 63 223 8.0 10.0 0.00 0.00 0.00 39 1014.8
20260503210612 63 204 4.0 5.0 0.00 0.00 0.00 43 1014.7
20260503210109 63 231 3.0 3.0 0.00 0.00 0.00 42 1015.1
20260503205605 63 229 9.0 10.0 0.00 0.00 0.00 38 1015.0
20260503205101 63 243 3.0 5.0 0.00 0.00 0.00 41 1015.3
20260503204558 63 236 4.0 5.0 0.00 0.00 0.00 38 1015.3
20260503204056 63 214 5.0 10.0 0.00 0.00 0.00 43 1015.5
20260503203553 62 249 9.0 10.0 0.00 0.00 0.00 37 1015.5
20260503203050 62 223 6.0 7.0 0.00 0.00 0.00 37 1015.5
20260503202548 62 274 6.0 7.0 0.00 0.00 0.00 44 1015.7
20260503202045 62 238 7.0 9.0 0.00 0.00 0.00 40 1015.8
20260503201543 62 253 4.0 5.0 0.00 0.00 0.00 43 1015.8
20260503201040 63 220 7.0 9.0 0.00 0.00 0.00 41 1015.8
20260503200536 63 144 5.0 7.0 0.00 0.00 0.00 40 1015.8
20260503200033 63 220 5.0 7.0 0.00 0.00 0.00 44 1016.1
20260503195530 63 187 4.0 5.0 0.00 0.00 0.00 42 1016.5
20260503195027 62 202 4.0 6.0 0.00 0.00 0.00 45 1016.6
20260503194525 62 224 6.0 7.0 0.00 0.00 0.00 40 1016.7
20260503194024 62 249 4.0 6.0 0.00 0.00 0.00 41 1016.9
20260503193521 61 238 4.0 5.0 0.00 0.00 0.00 42 1016.7
20260503193016 61 270 6.0 7.0 0.00 0.00 0.00 40 1016.8
20260503192512 63 235 7.0 9.0 0.00 0.00 0.00 42 1016.8
20260503192008 62 224 4.0 6.0 0.00 0.00 0.00 44 1017.0
20260503191505 61 242 8.0 9.0 0.00 0.00 0.00 40 1016.9
20260503191002 61 246 5.0 7.0 0.00 0.00 0.00 42 1017.1
20260503190459 62 257 5.0 6.0 0.00 0.00 0.00 40 1017.5
20260503185956 61 209 4.0 6.0 0.00 0.00 0.00 44 1017.3
20260503185452 61 255 2.0 2.0 0.00 0.00 0.00 41 1017.4
20260503184952 61 227 5.0 5.0 0.00 0.00 0.00 41 1017.4
20260503184448 61 252 2.0 3.0 0.00 0.00 0.00 41 1017.8
20260503183945 60 255 4.0 5.0 0.00 0.00 0.00 41 1017.5
20260503183441 60 252 6.0 8.0 0.00 0.00 0.00 44 1017.7
20260503182938 60 225 8.0 9.0 0.00 0.00 0.00 40 1017.5
20260503182437 60 226 6.0 8.0 0.00 0.00 0.00 41 1018.0
20260503181934 60 194 7.0 7.0 0.00 0.00 0.00 39 1018.3
20260503181431 60 284 1.0 1.0 0.00 0.00 0.00 43 1018.0
20260503180927 60 189 9.0 13.0 0.00 0.00 0.00 43 1018.2
20260503180427 60 148 3.0 5.0 0.00 0.00 0.00 44 1018.3
20260503175923 60 200 6.0 7.0 0.00 0.00 0.00 39 1018.5
20260503175421 60 221 3.0 5.0 0.00 0.00 0.00 42 1018.3
20260503174916 59 250 3.0 3.0 0.00 0.00 0.00 42 1018.3
20260503174415 59 234 3.0 5.0 0.00 0.00 0.00 39 1018.5
20260503173914 60 198 6.0 8.0 0.00 0.00 0.00 39 1018.6
20260503173411 59 200 3.0 3.0 0.00 0.00 0.00 40 1018.6
20260503172908 59 238 3.0 3.0 0.00 0.00 0.00 44 1018.6
20260503172406 59 137 6.0 13.0 0.00 0.00 0.00 43 1018.7
20260503171901 59 230 5.0 8.0 0.00 0.00 0.00 44 1019.0
20260503171358 58 235 5.0 7.0 0.00 0.00 0.00 41 1019.0
20260503170856 59 252 5.0 7.0 0.00 0.00 0.00 42 1019.1
20260503170352 58 129 3.0 3.0 0.00 0.00 0.00 43 1019.1
20260503150744 55 180 5.0 7.0 0.00 0.00 0.00 48 1020.3
20260503150240 55 189 5.0 7.0 0.00 0.00 0.00 46 1020.2
20260503140205 52 235 1.0 2.0 0.00 0.00 0.00 59 1020.2
20260503131134 48 214 2.0 2.0 0.00 0.00 0.00 74 1020.4
20260503130632 47 241 2.0 2.0 0.00 0.00 0.00 77 1020.3
20260503130129 47 196 1.0 2.0 0.00 0.00 0.00 79 1020.2
20260503110522 28 271 0.0 0.0 0.00 0.00 0.00 99 1019.6
20260503090408 29 272 0.0 0.0 0.00 0.00 0.00 99 1019.5
20260503081335 30 272 0.0 0.0 0.00 0.00 0.00 99 1018.8
20260503080832 30 271 0.0 0.0 0.00 0.00 0.00 99 1018.9
20260503080329 30 271 0.0 0.0 0.00 0.00 0.00 99 1018.9
20260503072805 30 271 0.0 0.0 0.00 0.00 0.00 99 1018.7
20260503072305 31 272 0.0 0.0 0.00 0.00 0.00 99 1018.8
20260503071758 30 272 0.0 0.0 0.00 0.00 0.00 99 1018.6
20260503071255 30 272 0.0 0.0 0.00 0.00 0.00 99 1018.8
20260503070751 30 272 0.0 0.0 0.00 0.00 0.00 99 1018.8
20260503070250 30 272 0.0 0.0 0.00 0.00 0.00 99 1018.6
20260503060215 33 272 0.0 0.0 0.00 0.00 0.00 99 1019.1
20260503054702 32 272 0.0 0.0 0.00 0.00 0.00 98 1019.3
20260503054159 32 272 0.0 0.0 0.00 0.00 0.00 98 1019.1
20260503053657 32 272 0.0 0.0 0.00 0.00 0.00 98 1018.9
20260503053155 32 272 0.0 0.0 0.00 0.00 0.00 98 1019.0
20260503052651 32 272 0.0 0.0 0.00 0.00 0.00 98 1018.9
20260503052147 32 272 0.0 0.0 0.00 0.00 0.00 98 1018.8
20260503051643 32 272 0.0 0.0 0.00 0.00 0.00 98 1019.1
20260503051141 32 272 0.0 0.0 0.00 0.00 0.00 98 1018.8
20260503050638 32 272 0.0 0.0 0.00 0.00 0.00 98 1019.1
20260503050134 32 272 0.0 0.0 0.00 0.00 0.00 97 1018.9
20260503045632 33 272 0.0 0.0 0.00 0.00 0.00 97 1019.1
20260503045129 34 272 0.0 0.0 0.00 0.00 0.00 98 1018.8
20260503044625 34 272 0.0 0.0 0.00 0.00 0.00 97 1018.8
20260503044123 34 272 0.0 0.0 0.00 0.00 0.00 97 1019.0
20260503043620 34 272 0.0 0.0 0.00 0.00 0.00 97 1018.9
20260503043116 34 272 0.0 0.0 0.00 0.00 0.00 97 1018.8
20260503042613 34 272 0.0 0.0 0.00 0.00 0.00 97 1018.9
20260503042109 34 272 0.0 0.0 0.00 0.00 0.00 97 1019.0
20260503041605 35 272 0.0 0.0 0.00 0.00 0.00 97 1019.0
20260503041104 34 272 0.0 0.0 0.00 0.00 0.00 96 1018.8
20260503040601 35 272 0.0 0.0 0.00 0.00 0.00 96 1018.8
20260503040058 35 272 0.0 0.0 0.00 0.00 0.00 96 1019.0
20260503035554 36 272 0.0 0.0 0.00 0.00 0.00 96 1018.8
20260503035052 36 272 0.0 0.0 0.00 0.00 0.00 96 1019.0
20260503034549 36 272 0.0 0.0 0.00 0.00 0.00 96 1018.9
20260503034046 36 272 0.0 0.0 0.00 0.00 0.00 95 1018.9
20260503033543 37 272 0.0 0.0 0.00 0.00 0.00 95 1019.0
20260503033041 37 272 0.0 0.0 0.00 0.00 0.00 95 1018.8
20260503032539 37 272 0.0 0.0 0.00 0.00 0.00 95 1018.9
20260503032037 37 272 0.0 0.0 0.00 0.00 0.00 94 1019.0
20260503031535 38 272 0.0 0.0 0.00 0.00 0.00 94 1018.9
20260503031032 38 272 0.0 0.0 0.00 0.00 0.00 94 1019.0
20260503030527 38 272 0.0 0.0 0.00 0.00 0.00 94 1018.6
20260503030025 39 272 0.0 0.0 0.00 0.00 0.00 94 1018.8
20260503025521 39 272 0.0 0.0 0.00 0.00 0.00 94 1019.0
20260503025020 40 272 0.0 0.0 0.00 0.00 0.00 94 1018.8
20260503024515 40 272 0.0 0.0 0.00 0.00 0.00 94 1018.9
20260503024013 40 272 0.0 0.0 0.00 0.00 0.00 94 1018.7
20260503023509 40 272 0.0 0.0 0.00 0.00 0.00 93 1018.7
20260503023007 41 272 0.0 0.0 0.00 0.00 0.00 93 1018.5
20260503022502 41 272 0.0 0.0 0.00 0.00 0.00 93 1018.5
20260503021957 41 272 0.0 0.0 0.00 0.00 0.00 93 1018.4
20260503021454 42 272 0.0 0.0 0.00 0.00 0.00 93 1018.4
20260503020951 41 278 0.0 0.0 0.00 0.00 0.00 94 1018.5
20260503020449 41 288 0.0 0.0 0.00 0.00 0.00 94 1018.1
20260503015945 41 296 1.0 1.0 0.00 0.00 0.00 94 1018.0
20260503015442 40 279 0.0 0.0 0.00 0.00 0.00 93 1017.8
20260503014938 40 279 0.0 0.0 0.00 0.00 0.00 93 1018.1
20260503014435 40 279 0.0 0.0 0.00 0.00 0.00 93 1017.8
20260503013933 41 280 0.0 0.0 0.00 0.00 0.00 92 1017.6
20260503013430 40 279 0.0 0.0 0.00 0.00 0.00 91 1018.0
20260503012927 41 280 0.0 0.0 0.00 0.00 0.00 91 1017.6
20260503012425 41 280 0.0 0.0 0.00 0.00 0.00 91 1017.5
20260503011921 42 280 0.0 0.0 0.00 0.00 0.00 90 1017.3
20260503011418 42 291 0.0 0.0 0.00 0.00 0.00 90 1017.5
20260503010915 42 291 0.0 1.0 0.00 0.00 0.00 90 1017.3
20260503010412 43 279 0.0 0.0 0.00 0.00 0.00 89 1017.1
20260503005909 43 280 0.0 0.0 0.00 0.00 0.00 88 1017.2
20260503005406 44 280 0.0 0.0 0.00 0.00 0.00 88 1017.3
20260503004902 44 281 0.0 0.0 0.00 0.00 0.00 87 1017.2
20260503004400 44 279 0.0 0.0 0.00 0.00 0.00 86 1017.1
20260503003857 45 280 1.0 1.0 0.00 0.00 0.00 85 1017.1
20260503003354 46 268 0.0 0.0 0.00 0.00 0.00 83 1017.1
20260503002851 46 268 0.0 0.0 0.00 0.00 0.00 80 1016.8
20260503002348 47 267 0.0 0.0 0.00 0.00 0.00 80 1017.2
20260503001844 48 266 0.0 0.0 0.00 0.00 0.00 76 1016.9
20260503001341 49 266 0.0 0.0 0.00 0.00 0.00 70 1016.8
20260503000839 50 280 0.0 1.0 0.00 0.00 0.00 64 1016.6
20260503000336 50 274 1.0 1.0 0.00 0.00 0.00 64 1016.5
20260502235833 50 260 0.0 1.0 0.00 0.00 0.00 64 1016.7
20260502235330 51 256 1.0 1.0 0.00 0.00 0.00 65 1016.5
20260502234827 51 268 0.0 1.0 0.00 0.00 0.00 64 1016.5
20260502234323 51 264 0.0 0.0 0.00 0.00 0.00 62 1016.8
20260502233820 51 253 1.0 1.0 0.00 0.00 0.00 62 1016.5
20260502233316 52 270 2.0 2.0 0.00 0.00 0.00 58 1016.4
20260502232813 53 283 2.0 2.0 0.00 0.00 0.00 57 1016.7
20260502232310 54 273 2.0 2.0 0.00 0.00 0.00 57 1016.6
20260502231806 54 261 1.0 1.0 0.00 0.00 0.00 58 1016.6
20260502231304 53 267 1.0 2.0 0.00 0.00 0.00 61 1016.3
20260502230803 52 283 0.0 1.0 0.00 0.00 0.00 60 1016.6
20260502230300 52 276 1.0 1.0 0.00 0.00 0.00 59 1016.3
20260502225756 53 273 4.0 5.0 0.00 0.00 0.00 57 1016.6